TAM3361 SBCG-SBGR

Flight info

Callsign TAM3361
Flight time 1h 12m
Altitude 35000
Route ENROD UZ42 ZARES
Aircraft A320/M-SDE3FGHIRWY/LB1

Departure

Time 2026-04-22 17:48
Airport Campo Grande Airport (SBCG)

Arrival

Time 2026-04-22 19:00
Airport São Paulo/Guarulhos–Governor André Franco Montoro International Airport (SBGR)
Time Latitude Longitude Altitude Speed Heading
2026-04-22 17:37 -20.45793 -54.66932 1839 ft 0 kts 352°
2026-04-22 17:43 -20.45805 -54.66931 1839 ft 4 kts 356°
2026-04-22 17:43 -20.45831 -54.66933 1839 ft 4 kts 20°
2026-04-22 17:43 -20.45850 -54.66947 1839 ft 4 kts 77°
2026-04-22 17:43 -20.45851 -54.66952 1839 ft 0 kts 84°
2026-04-22 17:45 -20.45849 -54.66934 1839 ft 4 kts 84°
2026-04-22 17:46 -20.45843 -54.66872 1839 ft 12 kts 84°
2026-04-22 17:46 -20.45833 -54.66778 1839 ft 12 kts 86°
2026-04-22 17:46 -20.45881 -54.66712 1839 ft 13 kts 154°
2026-04-22 17:46 -20.45967 -54.66678 1839 ft 14 kts 160°
2026-04-22 17:47 -20.46058 -54.66632 1839 ft 15 kts 156°
2026-04-22 17:47 -20.46148 -54.66584 1838 ft 14 kts 187°
2026-04-22 17:47 -20.46230 -54.66646 1840 ft 19 kts 221°
2026-04-22 17:47 -20.46526 -54.66931 1838 ft 99 kts 223°
2026-04-22 17:48 -20.46946 -54.67341 1839 ft 146 kts 222°
2026-04-22 17:48 -20.48039 -54.68478 2593 ft 163 kts 223°
2026-04-22 17:48 -20.48836 -54.69320 3168 ft 164 kts 219°
2026-04-22 17:48 -20.49743 -54.70176 3410 ft 185 kts 216°
2026-04-22 17:49 -20.50772 -54.71126 3631 ft 207 kts 218°
2026-04-22 17:49 -20.51987 -54.72112 3868 ft 230 kts 200°
2026-04-22 17:49 -20.53605 -54.72273 4179 ft 248 kts 163°
2026-04-22 17:49 -20.55084 -54.71262 4546 ft 264 kts 126°
2026-04-22 17:50 -20.55727 -54.69428 5261 ft 271 kts 93°
2026-04-22 17:50 -20.55691 -54.67395 6025 ft 277 kts 94°
2026-04-22 17:50 -20.56264 -54.65433 6698 ft 282 kts 123°
2026-04-22 17:50 -20.57501 -54.63793 7442 ft 285 kts 135°
2026-04-22 17:51 -20.58952 -54.62335 8236 ft 288 kts 138°
2026-04-22 17:51 -20.60448 -54.60908 9039 ft 290 kts 137°
2026-04-22 17:51 -20.61934 -54.59438 9847 ft 292 kts 136°
2026-04-22 17:51 -20.63353 -54.57848 10359 ft 305 kts 126°
2026-04-22 17:52 -20.64365 -54.55773 10545 ft 328 kts 109°
2026-04-22 17:52 -20.64903 -54.53329 10748 ft 348 kts 100°
2026-04-22 17:52 -20.65371 -54.50766 11250 ft 356 kts 101°
2026-04-22 17:52 -20.65891 -54.48167 11867 ft 359 kts 103°
2026-04-22 17:53 -20.66447 -54.45547 12510 ft 363 kts 103°
2026-04-22 17:53 -20.67025 -54.42910 13124 ft 367 kts 103°
2026-04-22 17:53 -20.67608 -54.40278 13727 ft 371 kts 103°
2026-04-22 17:53 -20.68198 -54.37582 14283 ft 374 kts 103°
2026-04-22 17:54 -20.68786 -54.34860 14817 ft 378 kts 103°
2026-04-22 17:54 -20.69382 -54.32074 15358 ft 382 kts 103°
2026-04-22 17:54 -20.69968 -54.29332 15886 ft 385 kts 103°
2026-04-22 17:54 -20.70573 -54.26506 16410 ft 388 kts 103°
2026-04-22 17:55 -20.70974 -54.24638 16757 ft 390 kts 103°
2026-04-22 17:55 -20.71779 -54.20879 17447 ft 394 kts 103°
2026-04-22 17:55 -20.72391 -54.18018 17949 ft 397 kts 103°
2026-04-22 17:55 -20.73005 -54.15131 18396 ft 401 kts 103°
2026-04-22 17:56 -20.73622 -54.12211 18800 ft 404 kts 103°
2026-04-22 17:56 -20.74242 -54.09273 19207 ft 407 kts 103°
2026-04-22 17:56 -20.74868 -54.06316 19611 ft 410 kts 103°
2026-04-22 17:56 -20.75519 -54.03339 20013 ft 412 kts 107°
2026-04-22 17:57 -20.76469 -54.00443 20407 ft 415 kts 111°
2026-04-22 17:57 -20.77504 -53.97554 20797 ft 418 kts 111°
2026-04-22 17:57 -20.78539 -53.94648 21178 ft 421 kts 111°
2026-04-22 17:57 -20.79579 -53.91713 21542 ft 424 kts 111°
2026-04-22 17:58 -20.80623 -53.88756 21917 ft 427 kts 111°
2026-04-22 17:58 -20.81671 -53.85780 22295 ft 429 kts 111°
2026-04-22 17:58 -20.82729 -53.82782 22652 ft 432 kts 111°
2026-04-22 17:58 -20.83794 -53.79767 22999 ft 435 kts 111°
2026-04-22 17:59 -20.84868 -53.76728 23354 ft 438 kts 111°
2026-04-22 17:59 -20.85947 -53.73671 23673 ft 441 kts 110°
2026-04-22 17:59 -20.87033 -53.70590 23873 ft 446 kts 110°
2026-04-22 17:59 -20.88132 -53.67472 24160 ft 449 kts 110°
2026-04-22 18:00 -20.88858 -53.65409 24346 ft 450 kts 110°
2026-04-22 18:00 -20.90341 -53.61200 24710 ft 453 kts 110°
2026-04-22 18:00 -20.91454 -53.58037 24989 ft 456 kts 110°
2026-04-22 18:00 -20.92570 -53.54861 25270 ft 457 kts 110°
2026-04-22 18:01 -20.93692 -53.51666 25545 ft 460 kts 110°
2026-04-22 18:01 -20.94817 -53.48456 25812 ft 462 kts 110°
2026-04-22 18:01 -20.95945 -53.45235 26086 ft 464 kts 110°
2026-04-22 18:01 -20.97077 -53.41989 26353 ft 466 kts 110°
2026-04-22 18:02 -20.98211 -53.38733 26610 ft 469 kts 110°
2026-04-22 18:02 -20.99354 -53.35465 26873 ft 471 kts 110°
2026-04-22 18:02 -21.00120 -53.33279 27044 ft 473 kts 110°
2026-04-22 18:02 -21.01275 -53.29985 27292 ft 475 kts 110°
2026-04-22 18:03 -21.02832 -53.25542 27619 ft 478 kts 110°
2026-04-22 18:03 -21.04000 -53.22200 27858 ft 480 kts 110°
2026-04-22 18:03 -21.04774 -53.19979 28013 ft 482 kts 110°
2026-04-22 18:03 -21.05946 -53.16615 28242 ft 484 kts 110°
2026-04-22 18:04 -21.07123 -53.13236 28480 ft 486 kts 110°
2026-04-22 18:04 -21.08304 -53.09839 28698 ft 488 kts 110°
2026-04-22 18:04 -21.09496 -53.06415 28921 ft 490 kts 110°
2026-04-22 18:04 -21.10684 -53.02991 29145 ft 492 kts 110°
2026-04-22 18:05 -21.11877 -52.99550 29351 ft 494 kts 110°
2026-04-22 18:05 -21.13077 -52.96092 29567 ft 496 kts 110°
2026-04-22 18:05 -21.14283 -52.92616 29874 ft 496 kts 110°
2026-04-22 18:05 -21.15483 -52.89154 30170 ft 496 kts 110°
2026-04-22 18:06 -21.16683 -52.85690 30452 ft 495 kts 110°
2026-04-22 18:06 -21.17880 -52.82230 30740 ft 495 kts 110°
2026-04-22 18:06 -21.19072 -52.78781 31034 ft 494 kts 110°
2026-04-22 18:06 -21.20261 -52.75336 31345 ft 493 kts 110°
2026-04-22 18:07 -21.21448 -52.71894 31638 ft 492 kts 110°
2026-04-22 18:07 -21.22619 -52.68500 31949 ft 491 kts 110°
2026-04-22 18:07 -21.23803 -52.65070 32262 ft 490 kts 111°
2026-04-22 18:07 -21.24983 -52.61643 32591 ft 489 kts 111°
2026-04-22 18:08 -21.26158 -52.58227 32905 ft 488 kts 111°
2026-04-22 18:08 -21.27334 -52.54816 33225 ft 487 kts 111°
2026-04-22 18:08 -21.28503 -52.51417 33546 ft 486 kts 111°
2026-04-22 18:08 -21.29671 -52.48019 33890 ft 485 kts 111°
2026-04-22 18:09 -21.30834 -52.44634 34195 ft 483 kts 111°
2026-04-22 18:09 -21.31992 -52.41256 34487 ft 482 kts 111°
2026-04-22 18:09 -21.33145 -52.37889 34780 ft 481 kts 111°
2026-04-22 18:09 -21.34293 -52.34523 34980 ft 481 kts 111°
2026-04-22 18:10 -21.35445 -52.31143 35022 ft 482 kts 111°
2026-04-22 18:10 -21.37747 -52.24388 35018 ft 482 kts 111°
2026-04-22 18:11 -21.40051 -52.17637 35018 ft 482 kts 111°
2026-04-22 18:11 -21.42356 -52.10891 35015 ft 482 kts 111°
2026-04-22 18:12 -21.44655 -52.04130 35011 ft 482 kts 111°
2026-04-22 18:12 -21.46946 -51.97374 35010 ft 482 kts 111°
2026-04-22 18:13 -21.49238 -51.90626 35018 ft 482 kts 111°
2026-04-22 18:13 -21.51531 -51.83863 35009 ft 482 kts 111°
2026-04-22 18:14 -21.53814 -51.77093 35010 ft 482 kts 111°
2026-04-22 18:14 -21.56089 -51.70331 35009 ft 481 kts 111°
2026-04-22 18:15 -21.58353 -51.63603 35010 ft 481 kts 111°
2026-04-22 18:15 -21.60636 -51.56840 35008 ft 482 kts 111°
2026-04-22 18:16 -21.62914 -51.50076 35010 ft 482 kts 111°
2026-04-22 18:16 -21.65190 -51.43300 35015 ft 482 kts 111°
2026-04-22 18:17 -21.67467 -51.36511 35016 ft 483 kts 111°
2026-04-22 18:17 -21.69732 -51.29720 35016 ft 483 kts 111°
2026-04-22 18:18 -21.71994 -51.22924 35020 ft 483 kts 111°
2026-04-22 18:18 -21.74265 -51.16124 35023 ft 483 kts 111°
2026-04-22 18:19 -21.76531 -51.09330 35023 ft 482 kts 111°
2026-04-22 18:19 -21.78791 -51.02527 35022 ft 483 kts 111°
2026-04-22 18:20 -21.81050 -50.95724 35018 ft 483 kts 111°
2026-04-22 18:20 -21.83309 -50.88917 35020 ft 483 kts 111°
2026-04-22 18:21 -21.85564 -50.82102 35027 ft 484 kts 111°
2026-04-22 18:21 -21.87810 -50.75273 35027 ft 483 kts 111°
2026-04-22 18:22 -21.90060 -50.68462 35026 ft 483 kts 111°
2026-04-22 18:22 -21.92313 -50.61643 35026 ft 483 kts 111°
2026-04-22 18:23 -21.94550 -50.54822 35022 ft 483 kts 111°
2026-04-22 18:23 -21.96794 -50.47987 35026 ft 483 kts 111°
2026-04-22 18:24 -22.00154 -50.37754 35023 ft 483 kts 111°
2026-04-22 18:25 -22.03500 -50.27507 35024 ft 483 kts 111°
2026-04-22 18:25 -22.05707 -50.20729 35025 ft 483 kts 111°
2026-04-22 18:26 -22.09057 -50.10427 35016 ft 483 kts 111°
2026-04-22 18:26 -22.11267 -50.03627 35012 ft 484 kts 111°
2026-04-22 18:27 -22.13495 -49.96778 35021 ft 484 kts 111°
2026-04-22 18:27 -22.15720 -49.89935 35021 ft 484 kts 111°
2026-04-22 18:28 -22.17934 -49.83078 35031 ft 484 kts 111°
2026-04-22 18:28 -22.20147 -49.76220 35025 ft 484 kts 111°
2026-04-22 18:29 -22.22359 -49.69351 35021 ft 485 kts 111°
2026-04-22 18:29 -22.24565 -49.62481 35023 ft 485 kts 111°
2026-04-22 18:30 -22.27885 -49.52154 35021 ft 485 kts 111°
2026-04-22 18:31 -22.30085 -49.45282 35028 ft 485 kts 111°
2026-04-22 18:31 -22.32273 -49.38447 35041 ft 485 kts 111°
2026-04-22 18:32 -22.34471 -49.31565 35060 ft 485 kts 111°
2026-04-22 18:32 -22.36660 -49.24680 35067 ft 484 kts 111°
2026-04-22 18:33 -22.38875 -49.17758 35082 ft 485 kts 111°
2026-04-22 18:33 -22.41055 -49.10866 35091 ft 484 kts 111°
2026-04-22 18:34 -22.43182 -49.03959 35094 ft 484 kts 110°
2026-04-22 18:34 -22.45297 -48.97054 35081 ft 484 kts 110°
2026-04-22 18:35 -22.47429 -48.90141 35063 ft 485 kts 111°
2026-04-22 18:35 -22.49564 -48.83226 35052 ft 485 kts 110°
2026-04-22 18:36 -22.51732 -48.76371 35037 ft 484 kts 116°
2026-04-22 18:36 -22.54673 -48.69816 35010 ft 486 kts 118°
2026-04-22 18:37 -22.57648 -48.63224 35011 ft 489 kts 118°
2026-04-22 18:37 -22.60122 -48.57708 35026 ft 490 kts 118°
2026-04-22 18:38 -22.63610 -48.49930 35028 ft 492 kts 118°
2026-04-22 18:38 -22.66610 -48.43260 35045 ft 493 kts 118°
2026-04-22 18:39 -22.71071 -48.33311 34571 ft 483 kts 118°
2026-04-22 18:39 -22.72535 -48.30028 33855 ft 484 kts 118°
2026-04-22 18:39 -22.74000 -48.26745 33040 ft 485 kts 118°
2026-04-22 18:40 -22.75455 -48.23486 32248 ft 486 kts 118°
2026-04-22 18:40 -22.76929 -48.20182 31459 ft 487 kts 118°
2026-04-22 18:40 -22.78399 -48.16880 30693 ft 487 kts 118°
2026-04-22 18:40 -22.79870 -48.13578 29876 ft 487 kts 118°
2026-04-22 18:41 -22.81340 -48.10279 29152 ft 484 kts 118°
2026-04-22 18:41 -22.82792 -48.07015 28507 ft 478 kts 118°
2026-04-22 18:41 -22.84228 -48.03782 27861 ft 473 kts 118°
2026-04-22 18:41 -22.85651 -48.00580 27225 ft 469 kts 118°
2026-04-22 18:42 -22.87061 -47.97414 26624 ft 465 kts 118°
2026-04-22 18:42 -22.88460 -47.94270 26040 ft 461 kts 118°
2026-04-22 18:42 -22.89844 -47.91156 25462 ft 457 kts 118°
2026-04-22 18:42 -22.91215 -47.88065 24883 ft 453 kts 118°
2026-04-22 18:43 -22.92567 -47.85003 24322 ft 449 kts 118°
2026-04-22 18:43 -22.93911 -47.81960 23780 ft 445 kts 118°
2026-04-22 18:43 -22.95249 -47.78938 23174 ft 442 kts 118°
2026-04-22 18:43 -22.96571 -47.75953 22580 ft 437 kts 118°
2026-04-22 18:44 -22.97877 -47.72999 22022 ft 433 kts 118°
2026-04-22 18:44 -22.99172 -47.70067 21491 ft 428 kts 118°
2026-04-22 18:44 -23.00452 -47.67169 20945 ft 424 kts 118°
2026-04-22 18:44 -23.01720 -47.64294 20428 ft 420 kts 117°
2026-04-22 18:45 -23.02978 -47.61443 19921 ft 416 kts 117°
2026-04-22 18:45 -23.04222 -47.58619 19426 ft 413 kts 117°
2026-04-22 18:45 -23.05454 -47.55822 18953 ft 409 kts 117°
2026-04-22 18:45 -23.06673 -47.53052 18485 ft 405 kts 117°
2026-04-22 18:46 -23.07877 -47.50310 17987 ft 401 kts 117°
2026-04-22 18:46 -23.09076 -47.47583 17472 ft 398 kts 117°
2026-04-22 18:46 -23.09877 -47.45767 17139 ft 395 kts 117°
2026-04-22 18:46 -23.11061 -47.43083 16655 ft 392 kts 117°
2026-04-22 18:47 -23.12610 -47.39558 16011 ft 388 kts 117°
2026-04-22 18:47 -23.13390 -47.37775 15685 ft 386 kts 117°
2026-04-22 18:47 -23.14535 -47.35158 15354 ft 380 kts 117°
2026-04-22 18:47 -23.16000 -47.31809 15201 ft 363 kts 117°
2026-04-22 18:48 -23.17067 -47.29371 15083 ft 351 kts 117°
2026-04-22 18:48 -23.17769 -47.27764 15004 ft 344 kts 117°
2026-04-22 18:48 -23.18765 -47.25481 14884 ft 334 kts 117°
2026-04-22 18:48 -23.19744 -47.23237 14771 ft 324 kts 117°
2026-04-22 18:49 -23.20701 -47.21053 14637 ft 316 kts 117°
2026-04-22 18:49 -23.21637 -47.18921 14504 ft 308 kts 117°
2026-04-22 18:49 -23.22553 -47.16830 14278 ft 305 kts 117°
2026-04-22 18:49 -23.23462 -47.14753 14003 ft 304 kts 117°
2026-04-22 18:50 -23.24385 -47.12642 13422 ft 312 kts 117°
2026-04-22 18:50 -23.25299 -47.10545 13162 ft 303 kts 117°
2026-04-22 18:50 -23.26201 -47.08482 12636 ft 302 kts 117°
2026-04-22 18:50 -23.27082 -47.06461 12432 ft 288 kts 117°
2026-04-22 18:51 -23.27925 -47.04523 12023 ft 281 kts 117°
2026-04-22 18:51 -23.28755 -47.02616 11540 ft 278 kts 117°
2026-04-22 18:51 -23.29577 -47.00724 11040 ft 275 kts 117°
2026-04-22 18:51 -23.30378 -46.98881 10749 ft 265 kts 117°
2026-04-22 18:52 -23.31156 -46.97090 10568 ft 262 kts 116°
2026-04-22 18:52 -23.31936 -46.95300 10435 ft 261 kts 117°
2026-04-22 18:52 -23.32714 -46.93515 10317 ft 261 kts 117°
2026-04-22 18:52 -23.33480 -46.91748 10204 ft 260 kts 116°
2026-04-22 18:53 -23.34249 -46.89968 10095 ft 260 kts 116°
2026-04-22 18:53 -23.35019 -46.88191 9975 ft 259 kts 116°
2026-04-22 18:53 -23.35804 -46.86388 9674 ft 262 kts 116°
2026-04-22 18:53 -23.36586 -46.84589 9309 ft 263 kts 116°
2026-04-22 18:54 -23.37357 -46.82812 9018 ft 261 kts 116°
2026-04-22 18:54 -23.38128 -46.81028 8844 ft 254 kts 116°
2026-04-22 18:54 -23.38876 -46.79302 8446 ft 257 kts 116°
2026-04-22 18:54 -23.39644 -46.77535 8118 ft 256 kts 116°
2026-04-22 18:55 -23.40393 -46.75803 7717 ft 251 kts 116°
2026-04-22 18:55 -23.41134 -46.74089 7266 ft 249 kts 116°
2026-04-22 18:55 -23.41874 -46.72386 6822 ft 248 kts 116°
2026-04-22 18:55 -23.42613 -46.70697 6376 ft 246 kts 118°
2026-04-22 18:56 -23.43534 -46.69145 6036 ft 238 kts 124°
2026-04-22 18:56 -23.44431 -46.67714 5992 ft 219 kts 125°
2026-04-22 18:56 -23.45278 -46.66367 5993 ft 214 kts 124°
2026-04-22 18:56 -23.46086 -46.65083 5719 ft 198 kts 125°
2026-04-22 18:57 -23.46822 -46.63894 5539 ft 180 kts 121°
2026-04-22 18:57 -23.47243 -46.62675 5476 ft 168 kts 101°
2026-04-22 18:57 -23.47277 -46.61404 5174 ft 171 kts 81°
2026-04-22 18:57 -23.46967 -46.60137 4755 ft 177 kts 75°
2026-04-22 18:58 -23.46616 -46.58854 4378 ft 175 kts 76°
2026-04-22 18:58 -23.46277 -46.57603 4102 ft 168 kts 76°
2026-04-22 18:58 -23.45954 -46.56405 3878 ft 162 kts 75°
2026-04-22 18:58 -23.45639 -46.55235 3674 ft 159 kts 75°
2026-04-22 18:59 -23.45336 -46.54110 3482 ft 153 kts 76°
2026-04-22 18:59 -23.45038 -46.53005 3287 ft 151 kts 77°
2026-04-22 18:59 -23.44742 -46.51905 3094 ft 149 kts 75°
2026-04-22 18:59 -23.44451 -46.50827 2905 ft 148 kts 74°
2026-04-22 19:00 -23.44160 -46.49756 2687 ft 149 kts 75°
2026-04-22 19:00 -23.43871 -46.48690 2487 ft 144 kts 76°
2026-04-22 19:00 -23.43609 -46.47701 2467 ft 109 kts 73°
2026-04-22 19:00 -23.43477 -46.47217 2462 ft 36 kts 73°
2026-04-22 19:01 -23.43392 -46.46980 2463 ft 20 kts 54°
2026-04-22 19:01 -23.43298 -46.46865 2465 ft 21 kts 46°
2026-04-22 19:01 -23.43188 -46.46751 2462 ft 22 kts 41°
2026-04-22 19:01 -23.43041 -46.46735 2464 ft 23 kts 343°
2026-04-22 19:02 -23.42884 -46.46784 2465 ft 24 kts 344°
2026-04-22 19:02 -23.42772 -46.46879 2461 ft 20 kts 260°
2026-04-22 19:02 -23.42819 -46.47031 2463 ft 22 kts 253°
2026-04-22 19:02 -23.42863 -46.47196 2461 ft 23 kts 253°
2026-04-22 19:03 -23.42911 -46.47368 2465 ft 24 kts 254°
2026-04-22 19:03 -23.42919 -46.47459 2463 ft 9 kts 295°
2026-04-22 19:03 -23.42872 -46.47484 2461 ft 7 kts 21°
2026-04-22 19:03 -23.42843 -46.47452 2461 ft 5 kts 65°
2026-04-22 19:04 -23.42833 -46.47419 2461 ft 4 kts 75°
2026-04-22 19:04 -23.42826 -46.47397 2461 ft 3 kts 73°
2026-04-22 19:04 -23.42825 -46.47391 2461 ft 0 kts 74°